Regional Weather Roundup
Issued by NWS

Home | Current Version | Previous Version | Graphics & Text | Print | Product List | Glossary Off
Versions: 1 2 3 4 5 6 7 8 9 10 11 12 13 14 15 16 17 18 19 20 21 22 23 24 25 26 27 28 29 30 31 32 33 34 35 36 37 38 39 40 41 42 43 44 45 46 47 48 49 50

000
ASUS43 KBIS 210820
RWRND

NORTH DAKOTA REGIONAL WEATHER ROUNDUP
NATIONAL WEATHER SERVICE BISMARCK ND
300 AM CDT MON APR 21 2014

NOTE: "FAIR" INDICATES FEW OR NO CLOUDS BELOW 12,000 FEET WITH NO
SIGNIFICANT WEATHER AND/OR OBSTRUCTIONS TO VISIBILITY.


NDZ001>003-009>011-017-210900-
NORTHWEST NORTH DAKOTA

CITY           SKY/WX    TMP DP  RH WIND       PRES   REMARKS
WILLISTON      CLEAR     36  30  79 W6        30.11R
MINOT          CLEAR     43  35  73 W16       30.02R
MINOT AFB      MOCLDY    41  37  87 W16       30.02R
$$

NDZ018>021-031>035-040>046-210900-
SOUTHWEST NORTH DAKOTA

CITY           SKY/WX    TMP DP  RH WIND       PRES   REMARKS
BISMARCK       CLEAR     40  28  62 N6        30.07R
DICKINSON      CLEAR     37  25  61 W9        30.09R
GARRISON         N/A     42  32  67 NW13      30.04R
HETTINGER ARPT CLEAR     33  23  66 CALM      30.13S
$$

NDZ004>008-012>016-024-026-027-054-210900-
NORTHEAST NORTH DAKOTA

CITY           SKY/WX    TMP DP  RH WIND       PRES   REMARKS
GRAND FORKS    CLEAR     46  36  68 SW9       29.90F
GRND FRKS AFB  CLEAR     43  36  75 W7        29.91S
DEVILS LAKE    CLEAR     45  34  65 W21       29.94R
$$

NDZ022-023-025-028>030-036>039-047>053-210900-
SOUTHEAST NORTH DAKOTA

CITY           SKY/WX    TMP DP  RH WIND       PRES   REMARKS
FARGO          CLOUDY    51  36  56 W9        29.94S
JAMESTOWN      CLEAR     44  31  60 W7        29.99R
$$




USA.gov is the U.S. government's official web portal to all federal, state and local government web resources and services.